Regional Weather Roundup
Issued by NWS

Home | Current Version | Previous Version | Text Only | Print | Product List | Glossary Off
Versions: 1 2 3 4 5 6 7 8 9 10 11 12 13 14 15 16 17 18 19 20 21 22 23 24 25 26 27 28 29 30 31 32 33 34 35 36 37 38 39 40 41 42 43 44 45 46 47 48 49 50

778
ASUS44 KLIX 220805
RWRLA
LOUISIANA WEATHER ROUNDUP
NATIONAL WEATHER SERVICE NEW ORLEANS LA
300 AM CDT WED OCT 22 2014

NOTE: "FAIR" INDICATES FEW OR NO CLOUDS BELOW 12,000 FEET WITH NO
      SIGNIFICANT WEATHER AND/OR OBSTRUCTIONS TO VISIBILITY.
      SKY/WX - SKY CONDITION AND SIGNIFICANT WEATHER.
      TMP - AIR TEMPERATURE.    DP   - DEWPOINT TEMPERATURE.
      RH  - RELATIVE HUMIDITY.  PRES - PRESSURE.
      HX  - HEAT INDEX.         WCI  - WIND CHILL INDEX.

*  THESE STATIONS ARE NOT NWS OR FAA STATIONS AND ARE NOT UNDER
   NWS QUALITY CONTROL.

LAZ040-048-061>063-065-066-069-220900-
SOUTHEAST LOUISIANA

CITY           SKY/WX    TMP DP  RH WIND       PRES   REMARKS
N.O. AUDUBON     N/A     64  61  90 MISG        N/A
N.O. INTL ARPT PTCLDY    67  59  75 NE6       30.02S
N.O. LAKEFRONT CLEAR     71  60  68 NE14      30.02S
N.O. DOWNTOWN* FAIR      70  55  60 NE6       30.02F
SLIDELL        CLEAR     55  52  89 CALM      30.02S
BATON ROUGE    CLEAR     58  56  93 CALM      30.04S
BOOTHVILLE     CLEAR     70  63  78 N5        30.00F
BELLE CHASSE   CLEAR     58  54  86 NE3       30.01F
BOGALUSA*        N/A     54  51  90 NE3       30.05S
NEW ROADS*     FAIR      60  58  92 NE3       30.05R
GONZALES*      FAIR      58  58 100 CALM      30.03S
HAMMOND*       CLEAR     55  52  88 N3        30.04S
HOUMA*         CLEAR     56  55  99 CALM      30.02S
PORT FOURCHON* SUNNY     70  64  83 N6        30.03F

$$

LAZ041-044-053-054-220900-
SOUTHWEST LOUISIANA

CITY           SKY/WX    TMP DP  RH WIND       PRES   REMARKS
LAKE CHARLES   CLEAR     60  58  92 CALM      30.04R FOG
LAFAYETTE      CLEAR     61  59  93 CALM      30.04R
PATTERSON      CLEAR     59  57  94 CALM      30.05S
SALT POINT       N/A     65  60  84 CALM      30.02S
NEW IBERIA     CLEAR     64  59  83 NE8       30.04S
CHENAULT AIRPK CLEAR     62  59  91 CALM      30.04S

$$

LAZ027-028-220900-
CENTRAL LOUISIANA

CITY           SKY/WX    TMP DP  RH WIND       PRES   REMARKS
FORT POLK      CLEAR     63  60  88 NE5       30.05S
ALEXANDRIA INT MOCLDY    59  57  93 CALM      30.04S
ALEXANDRIA     MOCLDY    57  55  93 CALM      30.06S

$$

LAZ001-002-220900-
NORTHWEST LOUISIANA

CITY           SKY/WX    TMP DP  RH WIND       PRES   REMARKS
SHREVEPORT     CLEAR     60  58  92 CALM      30.08R
BARKSDALE AFB  CLEAR     58  57  98 N2        30.08S
DTN SHREVEPORT CLEAR     58  56  93 CALM      30.08S FOG

$$

LAZ014-016-220900-
NORTHEAST LOUISIANA

CITY           SKY/WX    TMP DP  RH WIND       PRES   REMARKS
MONROE         CLEAR     61  54  77 NE6       30.09S
TALLULAH       CLEAR     57  55  93 N3        30.08R

$$




USA.gov is the U.S. government's official web portal to all federal, state and local government web resources and services.